Location: Millers Ferry
(32.0990°N, 87.3680°W)
Time: 12:36:25
(UTC-05:00)

CSL-04 Rocket - Visible Passes

Search period start: 07 July 2015 00:00
Search period end: 17 July 2015 00:00
Orbit: 807 x 860 km, 98.9° (Epoch: 06 July)

Date Brightness Start Highest point End Pass type
(mag) Time Alt. Az. Time Alt. Az. Time Alt. Az.
09 Jul 4.8 05:07:06 10° NNE 05:12:26 48° E 05:17:46 10° S visible
10 Jul 5.4 04:50:38 10° NE 04:55:31 32° E 05:00:28 10° SSE visible
11 Jul 6.0 04:34:24 10° NE 04:38:33 22° E 04:42:51 10° SE visible
12 Jul 6.3 04:18:38 10° ENE 04:21:30 15° E 04:24:41 10° SE visible
14 Jul 4.1 05:23:06 10° NNE 05:28:39 69° ESE 05:34:08 10° S visible
15 Jul 4.8 05:06:29 10° NNE 05:11:47 46° E 05:17:03 10° S visible
16 Jul 5.5 04:50:01 10° NE 04:54:51 31° E 04:59:44 10° SSE visible
